{"data":{"norad_id":66156,"epoch":"2026-05-25T03:56:36.935232Z","epoch_age_seconds":54864,"freshness":"FRESH","line1":"1 66156U 25240L   26145.16431638  .00016470  00000+0  56686-3 0  9998","line2":"2 66156  53.1602  67.8385 0001328  85.7861 274.3292 15.30206279 33694","mean_motion":15.30206279,"eccentricity":0.0001328,"inclination_deg":53.1602,"raan_deg":67.8385,"arg_perigee_deg":85.7861,"mean_anomaly_deg":274.3292,"bstar":0.00056686,"rev_number":3369,"period_min":94.104959557547,"perigee_km":474.28619885613,"apogee_km":476.10644418633,"semimajor_km":6853.3333215212,"source":"CELESTRAK","updated_at":"2026-05-25T13:38:21.070618Z"}}